Gulf Breeze High School FL US WEATHERSTEM current weather conditions

sailwx.info

Wind from 321 at 3 knots gusting 6

Air temperature 19.3° C
Dewpoint 9.9° C

Last reported at 2020-Sep-30 06:00 UTC.
Time now 2020-Sep-30 06:48 UTC

Location: N 30°22' W 087°10'.
View on Google Maps.

See reports from other nearby stations

  
Tides and Currents Weather Stations Pressure Air Temp Water Temp Dewpoint Dewpoint Depression Visibility Wind Speed Wind Dir Waves Ship Positions
date/time (UTC)wind fromknots sea level pressurealtimeterstation pressurevisibilityair tempwater tempwave heightnotes
2020-Sep-30 06:00 321 3 gusting 6 19.3
2020-Sep-30 05:50 321 3 gusting 7 19.4
2020-Sep-30 05:40 329 4 gusting 6 19.4
2020-Sep-30 05:30 304 4 gusting 6 19.5
2020-Sep-30 05:20 311 4 gusting 8 19.6
2020-Sep-30 05:10 319 4 gusting 7 19.6
2020-Sep-30 05:00 325 4 gusting 8 19.7
2020-Sep-30 04:50 307 6 gusting 9 19.7
2020-Sep-30 04:40 319 3 gusting 9 19.7
2020-Sep-30 04:20 286 5 gusting 11 19.8
2020-Sep-30 04:10 283 6 gusting 9 19.8
2020-Sep-30 04:00 297 3 gusting 9 19.9
2020-Sep-30 03:50 289 6 gusting 11 20.0
2020-Sep-30 03:40 295 7 gusting 10 20.0
2020-Sep-30 03:30 298 4 gusting 9 20.1
2020-Sep-30 03:20 286 6 gusting 11 20.2
2020-Sep-30 03:10 294 6 gusting 12 20.3
2020-Sep-30 03:00 304 4 gusting 11 20.4
2020-Sep-30 02:50 279 8 gusting 10 20.6
2020-Sep-30 02:40 312 7 gusting 10 20.6
2020-Sep-30 02:30 273 6 gusting 8 20.7
2020-Sep-30 02:20 290 7 gusting 10 20.7
2020-Sep-30 02:10 292 4 gusting 9 20.8
2020-Sep-30 02:00 296 8 gusting 10 20.9
2020-Sep-30 01:50 286 6 gusting 12 21.2
2020-Sep-30 01:40 298 6 gusting 12 21.3
2020-Sep-30 01:30 296 6 gusting 11 21.4
2020-Sep-30 01:20 296 8 gusting 11 21.6
2020-Sep-30 01:10 294 6 gusting 10 21.8
2020-Sep-30 01:00 314 3 gusting 12 21.9
2020-Sep-30 00:50 306 10 gusting 10 21.9
2020-Sep-30 00:40 302 3 gusting 10 22.1
2020-Sep-30 00:30 324 6 gusting 8 22.2
2020-Sep-30 00:20 325 5 gusting 9 22.2
2020-Sep-30 00:10 315 5 gusting 10 22.3
2020-Sep-30 00:00 318 6 gusting 9 22.4
2020-Sep-29 23:50 296 1 gusting 10 22.5
2020-Sep-29 23:40 304 6 gusting 8 22.6
2020-Sep-29 23:30 297 6 gusting 11 22.8
2020-Sep-29 23:20 316 6 gusting 13 22.9
2020-Sep-29 23:10 311 9 gusting 13 23.0
2020-Sep-29 23:00 294 9 gusting 13 23.1
2020-Sep-29 22:50 294 10 gusting 14 23.2
2020-Sep-29 22:40 306 6 gusting 14 23.3
2020-Sep-29 22:30 275 8 gusting 14 23.3
2020-Sep-29 22:20 323 9 gusting 12 23.1
2020-Sep-29 22:10 304 6 gusting 11 22.8
2020-Sep-29 22:00 305 7 gusting 12 22.6
2020-Sep-29 21:50 306 9 gusting 13 22.4
2020-Sep-29 21:40 302 8 gusting 13 22.3
2020-Sep-29 21:30 323 5 gusting 15 22.3
2020-Sep-29 21:20 275 12 gusting 16 22.1
2020-Sep-29 21:10 305 12 gusting 18 22.1
2020-Sep-29 21:00 311 10 gusting 15 21.9
2020-Sep-29 20:40 313 10 gusting 16 22.1
2020-Sep-29 20:30 336 8 gusting 16 22.2
2020-Sep-29 20:10 333 7 gusting 16 22.2
2020-Sep-29 20:00 339 12 gusting 16 21.9
2020-Sep-29 19:50 304 12 gusting 15 21.6
2020-Sep-29 19:30 333 8 gusting 17 21.3
2020-Sep-29 19:20 322 13 gusting 18 21.8
2020-Sep-29 19:10 312 10 gusting 16 22.1
2020-Sep-29 19:00 310 11 gusting 19 22.2
2020-Sep-29 18:50 324 8 gusting 20 21.8
2020-Sep-29 18:40 315 13 gusting 18 22.1
2020-Sep-29 18:30 332 12 gusting 17 22.1
2020-Sep-29 18:10 323 11 gusting 19 22.2
2020-Sep-29 17:50 327 11 gusting 18 20.7
2020-Sep-29 17:40 292 9 gusting 14 20.7
2020-Sep-29 17:20 313 8 gusting 15 21.2
2020-Sep-29 17:10 317 9 gusting 14 21.3
2020-Sep-29 17:00 320 10 gusting 15 21.4
2020-Sep-29 16:50 344 11 gusting 13 21.3
2020-Sep-29 16:30 334 7 gusting 13 21.2
2020-Sep-29 16:20 341 10 gusting 14 21.3
2020-Sep-29 16:10 306 8 gusting 15 21.6
2020-Sep-29 16:00 336 6 gusting 16 21.2
2020-Sep-29 15:40 307 11 gusting 18 20.6
2020-Sep-29 15:30 304 14 gusting 17 20.4
2020-Sep-29 15:20 302 9 gusting 24 20.4
2020-Sep-29 15:10 309 9 gusting 21 20.6
2020-Sep-29 15:00 360 19 gusting 22 20.4
2020-Sep-29 14:50 321 13 gusting 18 20.3
2020-Sep-29 14:40 318 8 gusting 19 20.1
2020-Sep-29 14:30 294 13 gusting 18 20.0
2020-Sep-29 14:20 302 10 gusting 21 20.0
2020-Sep-29 14:10 315 11 gusting 19 20.0
2020-Sep-29 14:00 312 13 gusting 20 19.9
2020-Sep-29 13:50 289 13 gusting 19 20.0
2020-Sep-29 13:40 296 13 gusting 21 20.2
2020-Sep-29 13:30 308 15 gusting 18 20.1
2020-Sep-29 13:20 305 12 gusting 19 19.8
2020-Sep-29 13:10 318 12 gusting 19 19.6
2020-Sep-29 13:00 286 9 gusting 18 19.6
2020-Sep-29 12:50 309 11 gusting 20 19.6
2020-Sep-29 12:40 320 13 gusting 18 19.7
2020-Sep-29 12:30 310 7 gusting 17 19.7
2020-Sep-29 12:20 309 13 gusting 19 19.6
2020-Sep-29 12:10 326 12 gusting 19 19.5
2020-Sep-29 12:00 298 9 gusting 18 19.4
2020-Sep-29 11:50 328 13 gusting 19 19.3
2020-Sep-29 11:40 304 11 gusting 20 19.2
2020-Sep-29 11:30 307 10 gusting 17 19.3
2020-Sep-29 11:20 314 11 gusting 18 19.2
2020-Sep-29 11:10 297 12 gusting 16 19.3
2020-Sep-29 11:00 321 9 gusting 14 19.3
2020-Sep-29 10:50 323 9 gusting 18 19.3
2020-Sep-29 10:40 334 12 gusting 17 19.3
2020-Sep-29 10:30 329 10 gusting 16 19.3
2020-Sep-29 10:20 330 9 gusting 16 19.4
2020-Sep-29 10:10 325 9 gusting 15 19.4
2020-Sep-29 10:00 284 9 gusting 17 19.4
2020-Sep-29 09:50 278 13 gusting 14 19.4
2020-Sep-29 09:40 287 10 gusting 16 19.4
2020-Sep-29 09:30 290 10 gusting 15 19.5
2020-Sep-29 09:20 321 10 gusting 16 19.7
2020-Sep-29 09:10 319 10 gusting 16 19.8
2020-Sep-29 09:00 313 12 gusting 16 19.9
2020-Sep-29 08:50 321 8 gusting 15 19.9
2020-Sep-29 08:40 269 13 gusting 15 19.9
2020-Sep-29 08:30 318 8 gusting 15 20.1
2020-Sep-29 08:20 312 7 gusting 13 20.2
2020-Sep-29 08:10 331 9 gusting 14 20.3
2020-Sep-29 07:50 317 6 gusting 13 20.3
2020-Sep-29 07:40 309 10 gusting 13 20.4
2020-Sep-29 07:30 305 8 gusting 17 20.4
2020-Sep-29 07:20 315 13 gusting 14 20.5
2020-Sep-29 07:10 321 8 gusting 17 20.6
2020-Sep-29 07:00 317 14 gusting 15 20.6
2020-Sep-29 06:50 310 10 gusting 16 20.7
2020-Sep-29 06:40 302 9 gusting 15 20.8
2020-Sep-29 06:30 294 9 gusting 16 21.2
2020-Sep-29 06:20 323 9 gusting 14 21.7
2020-Sep-29 06:10 282 11 gusting 13 21.9
2020-Sep-29 06:00 297 12 gusting 12 22.1
2020-Sep-29 05:50 298 8 gusting 13 22.1
2020-Sep-29 05:40 288 10 gusting 13 22.3
2020-Sep-29 05:30 293 8 gusting 14 22.6
2020-Sep-29 05:20 279 9 gusting 13 23.0
2020-Sep-29 05:10 319 10 gusting 13 23.3
2020-Sep-29 05:00 285 12 gusting 16 23.6
2020-Sep-29 04:50 288 6 gusting 13 24.2
2020-Sep-29 04:40 279 8 gusting 13 24.3
2020-Sep-29 04:30 282 8 gusting 13 24.4
2020-Sep-29 04:20 275 7 gusting 13 24.6
2020-Sep-29 04:10 294 9 gusting 12 24.8
2020-Sep-29 03:50 296 4 gusting 9 25.0
2020-Sep-29 03:40 283 7 gusting 13 25.1
2020-Sep-29 03:30 281 5 gusting 12 25.1
2020-Sep-29 03:20 289 6 gusting 13 25.1
2020-Sep-29 03:10 270 2 gusting 10 25.3
2020-Sep-29 03:00 284 2 gusting 9 25.4
2020-Sep-29 02:50 286 3 gusting 11 25.6
2020-Sep-29 02:40 267 5 gusting 11 25.6
2020-Sep-29 02:10 287 4 gusting 7 25.5
2020-Sep-29 02:00 281 2 gusting 6 25.4
2020-Sep-29 01:50 292 3 gusting 6 25.3
2020-Sep-29 01:40 288 6 gusting 10 25.3
2020-Sep-29 01:30 290 6 gusting 10 25.4
2020-Sep-29 01:20 279 3 gusting 8 25.5
2020-Sep-29 01:10 287 7 gusting 9 25.6
2020-Sep-29 01:00 286 6 gusting 8 25.8
2020-Sep-29 00:50 286 5 gusting 13 26.1
2020-Sep-29 00:40 272 6 gusting 16 26.3
2020-Sep-29 00:10 196 3 gusting 10 27.2
2020-Sep-29 00:00 234 6 gusting 8 27.5
2020-Sep-28 23:50 182 1 gusting 8 27.7
2020-Sep-28 23:30 206 6 gusting 9 27.8
2020-Sep-28 23:10 206 6 gusting 11 28.1
2020-Sep-28 23:00 203 5 gusting 13 28.2
2020-Sep-28 22:50 210 10 gusting 13 28.4
2020-Sep-28 22:20 211 6 gusting 11 28.9
2020-Sep-28 22:10 181 6 gusting 13 29.1
2020-Sep-28 21:50 202 8 gusting 13 29.4
2020-Sep-28 21:40 173 5 gusting 13 29.5
2020-Sep-28 21:20 194 6 gusting 13 29.6
2020-Sep-28 17:10 159 6 gusting 10 30.7
2020-Sep-28 17:00 153 9 gusting 9 30.6
2020-Sep-28 16:50 159 3 gusting 10 30.4
2020-Sep-28 16:40 149 2 gusting 11 30.3
2020-Sep-28 16:30 175 3 gusting 10 30.4
2020-Sep-28 16:20 184 6 gusting 10 30.0
2020-Sep-28 16:10 161 6 gusting 10 29.9
2020-Sep-28 16:00 182 5 gusting 9 29.9
2020-Sep-28 15:50 205 6 gusting 10 30.1
2020-Sep-28 15:40 199 8 gusting 8 30.0
2020-Sep-28 15:30 199 6 gusting 8 29.9
2020-Sep-28 15:20 142 4 gusting 9 29.6
2020-Sep-28 15:10 223 7 gusting 7 29.3
2020-Sep-28 15:00 232 6 gusting 8 28.9
2020-Sep-28 14:50 242 5 gusting 8 28.8
2020-Sep-28 12:50 25.1
2020-Sep-28 12:40 24.8
2020-Sep-28 12:30 292 0 gusting 2 24.7
2020-Sep-28 12:20 292 2 gusting 2 24.6
2020-Sep-28 12:10 292 0 gusting 2 24.4
2020-Sep-28 12:00 292 1 gusting 2 24.4
2020-Sep-28 11:50 292 0 gusting 3 24.4
2020-Sep-28 11:40 292 1 gusting 3 24.4
2020-Sep-28 11:30 304 0 gusting 4 24.5
2020-Sep-28 11:20 304 3 gusting 4 24.6
2020-Sep-28 11:10 300 3 gusting 4 24.7
2020-Sep-28 11:00 317 1 gusting 4 24.7
2020-Sep-28 10:50 318 2 gusting 3 24.7
2020-Sep-28 10:40 318 1 gusting 3 24.8
2020-Sep-28 10:20 294 2 gusting 3 25.3
2020-Sep-28 10:10 293 2 gusting 4 25.5
2020-Sep-28 10:00 152 0 gusting 2 25.7
2020-Sep-28 09:50 152 0 gusting 2 25.7
2020-Sep-28 09:40 25.7
2020-Sep-28 09:30 25.8
2020-Sep-28 09:20 26.0
2020-Sep-28 09:10 26.1
2020-Sep-28 09:00 26.2
2020-Sep-28 08:50 26.2
2020-Sep-28 08:40 151 0 gusting 1 26.4
2020-Sep-28 08:30 151 0 gusting 3 26.4
2020-Sep-28 08:20 151 0 gusting 2 26.6
2020-Sep-28 08:10 151 1 gusting 4 26.6
2020-Sep-28 08:00 149 1 gusting 3 26.6
2020-Sep-28 07:50 149 1 gusting 2 26.6
2020-Sep-28 07:40 26.6
2020-Sep-28 07:30 149 1 gusting 3 26.6
2020-Sep-28 07:20 142 1 gusting 3 26.6
2020-Sep-28 07:10 126 1 gusting 6 26.6
2020-Sep-28 07:00 142 3 gusting 6 26.6
2020-Sep-28 06:50 136 0 gusting 6 26.6
2020-Sep-28 06:40 146 3 gusting 6 26.6
2020-Sep-28 06:30 140 3 gusting 6 26.6
2020-Sep-28 06:20 131 2 gusting 6 26.6
2020-Sep-28 06:10 136 6 gusting 5 26.6
2020-Sep-28 06:00 147 0 gusting 6 26.6